Location: *
(50.3440°N, 18.6237°E)
Time: 14:05:43
(UTC+00:00)

Meteor 1-4 Rocket - Pass Details

Date: 30 November 2020
Orbit: 449 x 500 km, 81.2° (Epoch: 26 January)

Event Time Altitude Azimuth Distance (km) Brightness Sun altitude
Rises 16:23:15 0° 179° (S) 2,523 6.4 -14.9°
Reaches altitude 10° 16:25:23 10° 175° (S) 1,641 5.4 -15.2°
Maximum altitude 16:28:53 53° 98° (E) 584 2.6 -15.8°
Enters shadow 16:30:35 26° 32° (NNE) 948 3.6 -16.0°
